Guidonia, Italy

8:43 AM CET on February 13, 2016 (GMT +0100)
Tivoli (RM), Roma | | Change Station
CLOSE
Current Station
Personal Weather Station
Location: Tivoli, LAZIO
Elevation: 830 ft
Nearby Weather Stations

Elev 830 ft 41.96 °N, 12.80 °E | Updated 35 seconds ago

Partly Cloudy
Partly Cloudy
53.3 °F
Feels Like 53.3 °F
N
2.0
Wind Variable Wind from West
Gusts 2.0 mph

Today
High -- | Low -- °F
--% Chance of Precip.
Yesterday
High -- | Low -- °F
Precip. -- in
Pressure 29.50 in
Visibility 6.2 miles
Clouds Few 1500 ft
Dew Point 52 °F
Humidity 94%
Rainfall 0.13 in
Snow Depth Not available.
7:08 AM 5:38 PM
Waxing Crescent, 28% visible
METAR LIRA 130720Z 16003KT 9999 FEW015 11/10 Q0999
Pressure 29.50 in
Visibility 6.2 miles
Clouds Few 1500 ft
Dew Point 52 °F
Humidity 94%
Rainfall 0.13 in
Snow Depth Not available.
7:08 AM 5:38 PM
Waxing Crescent, 28% visible
METAR LIRA 130720Z 16003KT 9999 FEW015 11/10 Q0999

10-Day Weather Forecast

Almanac

Astronomy

Feb. 13, 2016 Rise Set
Actual Time
Civil Twilight
Nautical Twilight
Astronomical Twilight
Moon
Length of Visible Light
Length of Day
Tomorrow will be .
, % of the Moon is Illuminated

Today's Extremes

Country Highs Country Lows

Community

WunderPhotos

Upload Photos

1,892,526 photos uploaded!

WunderBlog® & News

Nearby

Air Quality

  Air Quality AQ Index Pollutant
Not available.

Snow Depth

Station Depth Elevation

Earthquake Activity

City Distance Mag. Time & Date
Minimum magnitude displayed is 2.5.

Coastal Water Temperatures

Place Temperature

Stations

Nearby Weather Stations

Station Location Temp. Windchill Dew Point Humidity Wind Precip. Elev Updated Type